Location: Copeville
(33.0796°N, 96.4155°W)
Time: 19:49:43
(UTC+00:00)

NOAA 19 - Pass Details

Date: 07 April 2023
Orbit: 840 x 859 km, 99.1° (Epoch: 31 May)

Event Time Altitude Azimuth Distance (km) Brightness Sun altitude
Exits shadow 01:54:00 15° 140° (SE) 2,154 6.8 -14.0°
Maximum altitude 01:58:20 46° 72° (ENE) 1,128 5.5 -14.8°
Drops below altitude 10° 02:03:31 10° 0° (N) 2,464 7.9 -15.9°
Sets 02:05:57 0° 355° (N) 3,401 8.7 -16.3°
